Weather Roundup
Issued by NWS Springfield, MO

Home | Current Version | Previous Version | Text Only | Print | Product List | Glossary On
Versions: 1 2 3 4 5 6 7 8 9 10 11 12 13 14 15 16 17 18 19 20 21 22 23 24 25 26 27 28 29 30 31 32 33 34 35 36 37 38 39 40 41 42 43 44 45 46 47 48 49 50
000
NZUS99 KSGF 220507
HRRSGF

HOURLY WEATHER
NATIONAL WEATHER SERVICE SPRINGFIELD MO
1200 AM CDT FRI AUG 22 2014

......SGF CWA......

CITY           SKY/WX    TMP DP  RH WIND       PRES   REMARKS
SPRINGFIELD    CLEAR     78  68  71 S9        30.02S
JOPLIN         CLEAR     81  71  71 S15       29.99S
WEST PLAINS    CLEAR     78  66  66 SW5       30.07R
ROLLA          CLEAR     79  66  64 SW10      30.00R
OSAGE BEACH    CLEAR     81  66  61 SW6       29.99R
BRANSON        CLEAR     77  72  83 S6        30.06R

......SURROUNDING SGF CWA......

CITY           SKY/WX    TMP DP  RH WIND       PRES   REMARKS
CHANUTE        CLEAR     82  70  66 S15       29.94F
PARSONS        CLEAR     81  71  71 S8        29.96F
COFFEYVILLE    CLEAR     82  72  71 S13       29.94F
EMPORIA        CLEAR     82  73  74 S16       29.93R
GROVE OK       CLEAR     81  72  74 S7        29.99F
ROGERS AR      CLEAR     79  70  74 S8        30.04F
SILOAM SPRINGS CLEAR     75  66  73 S5        30.03F
HARRISON AR    PTCLDY    77  72  84 S7        30.06S
NEAR YELLVILLE PTCLDY    79  68  69 S3        30.04S

......KANSAS AND MISSOURI......

CITY           SKY/WX    TMP DP  RH WIND       PRES   REMARKS
KANSAS CTY INT CLEAR     83  72  69 S13       29.92R
DOWNTOWN KC    CLEAR     86  71  60 S14       29.91R HX  91
COLUMBIA       PTCLDY    78  73  84 S8        29.96S
SEDALIA        CLEAR     82  69  64 SW10      29.96S
ST JOSEPH      PTCLDY    83  74  74 S9        29.89R
ST LOUIS       PTCLDY    86  75  69 S8        29.97R HX  95
SPIRIT OF STL  PTCLDY    82  73  74 S5        29.95S
KIRKSVILLE     CLEAR     80  74  81 S7        29.93S
WICHITA        PTCLDY    85  70  60 S20       29.91R
TOPEKA         PTCLDY    86  74  67 S13G22    29.90R HX  94
OLATHE         CLEAR     81  71  71 S10       29.93R

......TENNESSEE......

CITY           SKY/WX    TMP DP  RH WIND       PRES   REMARKS
MEMPHIS        CLEAR     83  74  74 SW8       30.05S
NASHVILLE      CLEAR     78  73  84 CALM      30.09S

......ARKANSAS.......

CITY           SKY/WX    TMP DP  RH WIND       PRES   REMARKS
FAYETTEVILLE   CLEAR     78  72  81 S12       30.03F
FT SMITH       CLEAR     80  74  81 NE6       30.00S
LITTLE ROCK    PTCLDY    78  73  84 S3        30.03S

......OKLAHOMA.......

CITY           SKY/WX    TMP DP  RH WIND       PRES   REMARKS
TULSA          CLEAR     85  71  63 S14       29.94F HX  90
PONCA CITY     CLEAR     86  70  58 S15G22    29.92S HX  90
MCALESTER      CLEAR     84  68  58 S6        29.99F
OKLAHOMA CITY  CLEAR     84  66  54 S12       29.95S

......IOWA............

CITY           SKY/WX    TMP DP  RH WIND       PRES   REMARKS
DES MOINES     PTCLDY    82  76  81 E5        29.87F
QUAD CITIES    MOCLDY    77  74  90 E3        29.90R

......ILLINOIS........

CITY           SKY/WX    TMP DP  RH WIND       PRES   REMARKS
QUINCY         MOCLDY    80  75  84 S8        29.92S
CHICAGO        CLOUDY    75  70  84 SE5       29.94F



USA.gov is the U.S. government's official web portal to all federal, state and local government web resources and services.